Location: Unspecified
(41.5000°N, 0.0000°E)
Time: 03:48:15
(UTC+00:00)

A-11 Canister half - Pass Details

Date: 03 July 2019
Orbit: 1526 x 1683 km, 47.3° (Epoch: 21 July)

Event Time Altitude Azimuth Distance (km) Brightness Sun altitude
Exits shadow 22:38:14 14° 108° (ESE) 3,485 10.5 -22.6°
Drops below altitude 10° 22:40:56 10° 92° (E) 3,793 10.8 -22.7°
Sets 22:45:42 0° 72° (ENE) 4,751 11.6 -23.1°
